Marion-Critt Cnty AP, Marion,, KY

3:49 AM CDT on May 30, 2017 (GMT -0500)
Marion-Critt Cnty AP, Marion,

Weather History for K5M9 - February, 2014

Change the Weather History Date:

Saturday, February 1, 2014

  Actual Average (KEHR) Record (KEHR)
Temperature  
Mean Temperature 48 °F -  
Max Temperature 60 °F 46 °F 69 °F (1967)
Min Temperature 35 °F 28 °F 1 °F (1945)
Degree Days  
Heating Degree Days 18    
Moisture  
Dew Point 40 °F    
Average Humidity 74    
Maximum Humidity 100    
Minimum Humidity 52    
Precipitation  
Precipitation 0.00 in - - ()
Sea Level Pressure  
Sea Level Pressure 29.91 in    
Wind  
Wind Speed 7 mph (South)    
Max Wind Speed 18 mph    
Max Gust Speed 29 mph    
Visibility 8 miles    
Events Rain    
Averages and records for this station are not official NWS values.
T = Trace of Precipitation, MM = Missing Value Source: NWS Daily Summary

Daily Weather History Graph

Daily Weather History Graph

Search for Another Location

Airport or City:

Trip Planner

Search our weather history database for the weather conditions in past years. The results will help you decide how hot, cold, wet, or windy it might be!

Date:

Astronomy

Feb. 01, 2014 Rise Set
Actual Time 6:55 AM CST 5:16 PM CST
Civil Twilight 6:28 AM CST 5:44 PM CST
Nautical Twilight 5:56 AM CST 6:15 PM CST
Astronomical Twilight 5:26 AM CST 6:46 PM CST
Moon 7:48 AM CST (2/1) 7:47 PM CST (2/1)
Length of Visible Light 11h 16m
Length of Day
10h 21m
Waxing Crescent, 5% of the Moon is Illuminated
Feb 1
Waxing Crescent
Feb 6
First Quarter
Feb 14
Full
Feb 22
Last Quarter
Mar 1
New

Hourly Weather History & Observations

Time (CST) Temp. Windchill Dew Point Humidity Pressure Visibility Wind Dir Wind Speed Gust Speed Precip Events Conditions
12:15 AM 36.7 °F 32.9 °F 36.0 °F 97% 29.98 in 5.0 mi East 4.6 mph - N/A   Overcast
12:35 AM 36.7 °F 32.9 °F 36.0 °F 97% 29.98 in 5.0 mi ESE 4.6 mph - N/A   Overcast
12:55 AM 36.9 °F 34.3 °F 36.0 °F 97% 29.97 in 5.0 mi East 3.5 mph - N/A   Overcast
1:15 AM 36.9 °F 33.1 °F 36.1 °F 97% 29.97 in 5.0 mi ESE 4.6 mph - N/A   Overcast
1:35 AM 37.0 °F 34.5 °F 36.1 °F 97% 29.97 in 5.0 mi SE 3.5 mph - N/A   Overcast
1:55 AM 37.0 °F 32.4 °F 36.1 °F 97% 29.96 in 5.0 mi SSE 5.8 mph - N/A   Overcast
2:15 AM 38.3 °F 34.8 °F 36.0 °F 91% 29.95 in 7.0 mi SSE 4.6 mph - N/A   Overcast
2:35 AM 39.7 °F 36.5 °F 35.6 °F 85% 29.95 in 10.0 mi SSE 4.6 mph - N/A   Overcast
2:55 AM 41.7 °F 38.0 °F 35.4 °F 78% 29.94 in 10.0 mi South 5.8 mph - N/A   Overcast
3:15 AM 42.6 °F 39.0 °F 35.1 °F 75% 29.94 in 10.0 mi South 5.8 mph - N/A   Overcast
3:35 AM 43.0 °F 39.5 °F 34.9 °F 73% 29.94 in 10.0 mi South 5.8 mph - N/A   Overcast
3:55 AM 43.2 °F 39.7 °F 34.9 °F 73% 29.93 in 10.0 mi South 5.8 mph - N/A   Overcast
4:15 AM 43.7 °F 40.3 °F 35.1 °F 72% 29.94 in 10.0 mi South 5.8 mph - N/A   Overcast
4:35 AM 44.1 °F 41.5 °F 35.1 °F 71% 29.93 in 10.0 mi South 4.6 mph - N/A   Overcast
4:55 AM 44.6 °F 40.7 °F 34.9 °F 69% 29.94 in 10.0 mi South 6.9 mph - N/A   Overcast
5:15 AM 44.8 °F 40.4 °F 34.7 °F 68% 29.94 in 10.0 mi South 8.1 mph - N/A   Overcast
5:35 AM 45.1 °F 41.4 °F 34.7 °F 67% 29.93 in 10.0 mi South 6.9 mph - N/A   Overcast
5:55 AM 45.5 °F 41.3 °F 34.5 °F 65% 29.92 in 10.0 mi South 8.1 mph - N/A   Overcast
6:15 AM 46.0 °F 42.5 °F 34.0 °F 63% 29.93 in 10.0 mi South 6.9 mph - N/A   Overcast
6:35 AM 46.4 °F 41.5 °F 33.8 °F 62% 29.91 in 10.0 mi South 10.4 mph 19.6 mph N/A   Overcast
6:55 AM 46.4 °F 40.7 °F 33.8 °F 62% 29.91 in 10.0 mi South 12.7 mph 21.9 mph N/A   Overcast
7:15 AM 47.7 °F - 34.2 °F 60% 29.91 in 10.0 mi South 10.4 mph 17.3 mph N/A   Overcast
7:35 AM 48.4 °F - 34.5 °F 59% 29.92 in 10.0 mi South 10.4 mph 17.3 mph N/A   Overcast
7:55 AM 48.6 °F - 33.8 °F 57% 29.92 in 10.0 mi South 10.4 mph 20.7 mph N/A   Overcast
8:15 AM 49.1 °F - 32.5 °F 53% 29.94 in 10.0 mi SSW 9.2 mph 20.7 mph N/A   Overcast
8:35 AM 49.3 °F - 32.4 °F 52% 29.92 in 10.0 mi South 13.8 mph 23.0 mph N/A   Overcast
8:55 AM 49.6 °F - 32.5 °F 52% 29.93 in 10.0 mi SSW 9.2 mph 18.4 mph N/A   Overcast
9:15 AM 49.6 °F - 33.3 °F 53% 29.92 in 10.0 mi South 15.0 mph 20.7 mph N/A   Overcast
9:35 AM 50.0 °F - 34.3 °F 55% 29.92 in 10.0 mi SSW 12.7 mph 23.0 mph N/A   Overcast
9:55 AM 50.5 °F - 35.4 °F 56% 29.92 in 10.0 mi South 15.0 mph 27.6 mph N/A   Overcast
10:15 AM 51.1 °F - 35.6 °F 55% 29.91 in 10.0 mi South 9.2 mph 21.9 mph N/A   Overcast
10:35 AM 51.8 °F - 36.5 °F 56% 29.91 in 10.0 mi South 11.5 mph 24.2 mph N/A   Overcast
10:55 AM 53.1 °F - 37.6 °F 56% 29.90 in 10.0 mi South 11.5 mph 28.8 mph N/A   Overcast
11:15 AM 53.6 °F - 39.9 °F 60% 29.91 in 10.0 mi SSW 11.5 mph 26.5 mph N/A   Overcast
11:35 AM 54.7 °F - 41.0 °F 60% 29.89 in 10.0 mi SSW 18.4 mph 26.5 mph N/A   Overcast
11:55 AM 55.2 °F - 42.1 °F 61% 29.88 in 10.0 mi South 13.8 mph 24.2 mph N/A   Overcast
12:15 PM 56.5 °F - 42.8 °F 60% 29.87 in 10.0 mi SSW 11.5 mph 25.3 mph N/A   Overcast
12:35 PM 57.4 °F - 43.3 °F 59% 29.87 in 10.0 mi SSW 11.5 mph 23.0 mph N/A   Overcast
12:55 PM 58.3 °F - 43.7 °F 58% 29.86 in 10.0 mi South 10.4 mph 27.6 mph N/A   Overcast
1:15 PM 59.0 °F - 44.1 °F 58% 29.85 in 10.0 mi SSW 16.1 mph 28.8 mph N/A   Overcast
1:35 PM 60.1 °F - 44.4 °F 56% 29.84 in 10.0 mi SSW 11.5 mph 18.4 mph N/A   Overcast
1:55 PM 59.4 °F - 44.6 °F 58% 29.85 in 10.0 mi South 9.2 mph 20.7 mph N/A   Overcast
2:15 PM 59.0 °F - 44.6 °F 59% 29.85 in 10.0 mi South 10.4 mph 20.7 mph N/A   Overcast
2:35 PM 58.8 °F - 44.8 °F 60% 29.85 in 10.0 mi SSW 11.5 mph 16.1 mph N/A   Overcast
2:55 PM 59.7 °F - 45.1 °F 59% 29.85 in 10.0 mi South 6.9 mph 18.4 mph N/A   Overcast
3:15 PM 60.3 °F - 45.7 °F 59% 29.85 in 10.0 mi South 6.9 mph 18.4 mph N/A   Mostly Cloudy
3:35 PM 60.6 °F - 46.4 °F 59% 29.85 in 10.0 mi SSW 9.2 mph 20.7 mph N/A   Mostly Cloudy
3:55 PM 60.3 °F - 46.6 °F 61% 29.85 in 10.0 mi SSW 10.4 mph 20.7 mph N/A   Mostly Cloudy
4:15 PM 60.3 °F - 46.6 °F 61% 29.85 in 10.0 mi South 10.4 mph 20.7 mph N/A   Overcast
4:35 PM 59.9 °F - 46.4 °F 61% 29.85 in 10.0 mi South 11.5 mph 20.7 mph N/A   Overcast
4:55 PM 59.5 °F - 46.4 °F 62% 29.85 in 10.0 mi South 6.9 mph 17.3 mph N/A   Overcast
5:15 PM 59.2 °F - 46.4 °F 63% 29.85 in 10.0 mi SSW 5.8 mph - N/A   Overcast
5:35 PM 59.2 °F - 46.4 °F 63% 29.87 in 10.0 mi SW 5.8 mph - N/A   Overcast
5:55 PM 58.1 °F - 47.7 °F 68% 29.89 in 7.0 mi SW 10.4 mph 16.1 mph N/A Rain Rain
6:15 PM 53.8 °F - 50.9 °F 90% 29.90 in 3.0 mi West 9.2 mph - N/A   Heavy Drizzle
6:35 PM 53.1 °F - 52.0 °F 96% 29.90 in 7.0 mi WNW 4.6 mph - N/A   Light Drizzle
6:55 PM 52.7 °F - 52.0 °F 97% 29.91 in 3.0 mi West 4.6 mph - N/A Rain Rain
7:15 PM 52.9 °F - 52.7 °F 99% 29.92 in 2.5 mi SW 5.8 mph - N/A   Heavy Drizzle
7:35 PM 52.3 °F - 52.0 °F 99% 29.92 in 1.5 mi Calm Calm - N/A Rain Rain
7:55 PM 52.0 °F - 52.0 °F 100% 29.91 in 0.5 mi Calm Calm - N/A Rain Light Rain
8:15 PM 46.6 °F - 46.6 °F 100% 29.93 in 4.0 mi NNW 9.2 mph - N/A Rain Heavy Rain
8:35 PM 45.7 °F 42.0 °F 45.5 °F 99% 29.94 in 4.0 mi NNW 6.9 mph - N/A   Heavy Drizzle
8:55 PM 44.1 °F 39.5 °F 43.9 °F 99% 29.95 in 4.0 mi North 8.1 mph - N/A Rain Rain
9:15 PM 42.8 °F 39.3 °F 42.8 °F 100% 29.94 in 5.0 mi NNE 5.8 mph - N/A Rain Rain
9:35 PM 41.9 °F 36.3 °F 41.9 °F 100% 29.96 in 7.0 mi North 9.2 mph - N/A   Light Drizzle
9:55 PM 41.0 °F 35.2 °F 40.8 °F 99% 29.96 in 3.0 mi North 9.2 mph - N/A Rain Light Rain
10:15 PM 39.4 °F 33.8 °F 39.2 °F 99% 29.95 in 5.0 mi North 8.1 mph - N/A Rain Rain
10:35 PM 38.7 °F 33.6 °F 38.3 °F 99% 29.95 in 10.0 mi North 6.9 mph - N/A   Light Drizzle
10:55 PM 37.8 °F 31.8 °F 37.4 °F 99% 29.96 in 10.0 mi North 8.1 mph - N/A   Light Drizzle
11:15 PM 36.5 °F 29.2 °F 36.3 °F 99% 29.95 in 10.0 mi North 10.4 mph - N/A   Light Drizzle
11:35 PM 35.8 °F 28.8 °F 35.2 °F 98% 29.96 in 10.0 mi North 9.2 mph - N/A Rain Light Rain
11:55 PM 35.1 °F 27.4 °F 34.7 °F 99% 29.96 in 4.0 mi North 10.4 mph - N/A Rain Light Rain